Tracking 29781 objects as of 15-Oct-2024
HD Live streaming from Space Station
objects crossing your sky now

HISPASAT 1A

Track HISPASAT 1A now!
HISPASAT 1A is classified as:


NORAD ID: 22116
Int'l Code: 1992-060A
Perigee: 36,049.3 km
Apogee: 36,078.9 km
Inclination: 13.8 °
Period: 1,449.9 minutes
Semi major axis: 42435 km
RCS: 7.143 m2 (large)
Launch date: September 10, 1992
Source: Spain (SPN)
Launch site: FRENCH GUIANA (FRGUI)
Your satellite tracking list
Your tracking list is empty




NASA's NSSDC Master Catalog

Two Line Element Set (TLE):
1 22116U 92060A   24289.18002459 -.00000171  00000-0  00000+0 0  9992
2 22116  13.7739  14.6487 0003490 234.8424 128.4321  0.99315101113439
Source of the keplerian elements: AFSPC